Regional Weather Roundup
Issued by NWS Burlington, VT

Home | Current Version | Previous Version | Text Only | Print | Product List | Glossary On
Versions: 1 2 3 4 5 6 7 8 9 10 11 12 13 14 15 16 17 18 19 20 21 22 23 24 25 26 27 28 29 30 31 32 33 34 35 36 37 38 39 40 41 42 43 44 45 46 47 48 49 50
000
ASUS41 KBTV 042010
RWRBTV
VERMONT REGIONAL WEATHER ROUNDUP
NATIONAL WEATHER SERVICE BURLINGTON VT
400 PM EDT MON MAY 04 2015

NOTE: "FAIR" INDICATES FEW OR NO CLOUDS BELOW 12,000 FEET WITH NO
SIGNIFICANT WEATHER AND/OR OBSTRUCTIONS TO VISIBILITY.

* THESE REPORTS ARE NOT UNDER NWS QUALITY CONTROL AND/OR DO NOT
  REPORT WEATHER SUCH AS PRECIPITATION AND FOG.

VTZ001>019-042100-
_____VERMONT_____


CITY           SKY/WX    TMP DP  RH WIND       PRES   REMARKS
BURLINGTON     PTCLDY    84  36  18 SW12      29.96F
MONTPELIER     MOCLDY    79  34  19 SW18G29   30.06F
MORRISVILLE    PTCLDY    81  38  21 SW10      30.00F
ST. JOHNSBURY*   N/A     82  35  18 MISG      29.98F
LYNDONVILLE*     N/A     80  27  14 S13G22    30.02F
MIDDLEBURY*      N/A     82  33  17 SW7G17    30.00F
RUTLAND*       CLOUDY    79  36  21 S15       30.04F
SPRINGFIELD    PTCLDY    82  34  17 W14G28    30.04F
HIGHGATE*        N/A     82  39  22 S14G23    29.94F
NEWPORT*         N/A     78  40  26 SW14G22   29.99F
BENNINGTON     MOCLDY    82  38  20 SW10G20   30.06F

_____LAKE CHAMPLAIN_____


CITY           SKY/WX    TMP DP  RH WIND       PRES   REMARKS

$$

NYZ007-026>031-035-052-083-042100-
_____NORTHERN NEW YORK_____


CITY           SKY/WX    TMP DP  RH WIND       PRES   REMARKS
PLATTSBURGH    PTCLDY    85  36  17 SW9G18    29.94F
SARANAC LAKE   MOCLDY    76  36  23 SW21      30.02F
MASSENA        PTCLDY    79  43  27 SW24G38   29.96S
OGDENSBURG*    CLEAR     77  45  31 SW13G28   29.97F
POTSDAM*       MOCLDY    79  48  34 W18G35    29.97F
WATERTOWN      MOCLDY    72  45  37 W12       30.02S
FT DRUM        PTCLDY    76  45  32 W12G22    30.02R
ALBANY         MOCLDY    85  37  18 SW14      30.03F
GLENS FALLS    PTCLDY    85  39  19 SW15G26   30.02F

$$
NHZ002-005-011-042100-
_____NEW HAMPSHIRE_____


CITY           SKY/WX    TMP DP  RH WIND       PRES   REMARKS
LEBANON        PTCLDY    84  35  17 SW16G22   30.02F
KEENE          PTCLDY    82  36  18 S18G25    30.05F
MT WASHINGTON  MOCLDY    50  30  46 W26G45      N/A
PLYMOUTH         N/A     83  44  25 W14G22    30.01F
WHITEFIELD     PTCLDY    82  33  17 SW10G18   30.01F

$$

_____REGIONAL QUEBEC LOCATIONS_____


CITY           SKY/WX    TMP DP  RH WIND       PRES   REMARKS
MONTREAL       CLOUDY    82  45  26 SW29G45   29.91F
QUEBEC CITY    MOCLDY    81  46  30 SW23G37   29.84F
SHERBROOKE     MOCLDY    81  37  21 SW22G29   29.94F

_____REGIONAL ONTARIO LOCATIONS_____


CITY           SKY/WX    TMP DP  RH WIND       PRES   REMARKS
OTTAWA         CLOUDY    77  48  36 SW22G36   29.93R

______KEY______
VSB  - VISIBILITY IN MILES
WCI  - WIND CHILL INDEX
HX   - HEAT INDEX
$$
NNNN



USA.gov is the U.S. government's official web portal to all federal, state and local government web resources and services.